Location: �mondeville
(49.4591°N, 1.3431°W)
Time: 21:38:45
(UTC+00:00)

COSMOS 2455 - Visible Passes

Search period start: 27 January 2020 00:00
Search period end: 06 February 2020 00:00
Orbit: 903 x 907 km, 67.1° (Epoch: 27 January)

Date Brightness Start Highest point End Pass type
(mag) Time Alt. Az. Time Alt. Az. Time Alt. Az.
27 Jan 4.8 03:27:17 25° ENE 03:27:17 25° ENE 03:30:24 10° NE visible
27 Jan 2.8 05:10:27 59° WNW 05:10:50 60° NW 05:16:49 10° NNE visible
27 Jan 4.2 06:53:38 10° WNW 06:58:02 21° NNW 07:02:31 10° NNE visible
28 Jan 4.6 03:31:38 27° ENE 03:31:38 27° ENE 03:34:40 10° NE visible
28 Jan 3.1 05:14:47 48° NW 05:14:58 48° NW 05:20:49 10° NNE visible
28 Jan 4.3 06:58:16 10° WNW 07:02:25 19° NNW 07:06:34 10° NNE visible
29 Jan 4.5 03:35:53 29° NE 03:35:53 29° NE 03:38:50 10° NE visible
29 Jan 3.3 05:19:02 39° NW 05:19:08 40° NW 05:24:48 10° NNE visible
29 Jan 4.5 07:03:01 10° NW 07:06:49 17° NNW 07:10:39 10° NNE visible
30 Jan 4.4 03:40:03 30° NE 03:40:03 30° NE 03:42:57 10° NE visible
30 Jan 3.6 05:23:12 33° NW 05:23:22 33° NW 05:28:47 10° NNE visible
30 Jan 4.6 07:07:44 10° NW 07:11:16 16° NNW 07:14:48 10° NNE visible
31 Jan 4.4 03:44:10 30° NE 03:44:10 30° NE 03:47:01 10° NE visible
31 Jan 3.8 05:27:19 28° NW 05:27:38 28° NNW 05:32:46 10° NNE visible
01 Feb 4.4 03:48:14 29° NNE 03:48:14 29° NNE 03:51:03 10° NNE visible
01 Feb 4.0 05:31:23 24° NW 05:31:55 24° NNW 05:36:45 10° NNE visible
02 Feb 4.4 03:52:15 28° NNE 03:52:15 28° NNE 03:55:04 10° NNE visible
02 Feb 4.2 05:35:24 20° NW 05:36:16 21° NNW 05:40:46 10° NNE visible
03 Feb 4.4 03:56:14 27° NNE 03:56:14 27° NNE 03:59:03 10° NNE visible
03 Feb 4.4 05:39:23 18° NW 05:40:38 19° NNW 05:44:48 10° NNE visible
04 Feb 5.7 02:17:03 10° NE 02:17:03 10° NE 02:17:04 10° NE visible
04 Feb 4.4 04:00:12 26° N 04:00:12 26° N 04:03:02 10° NNE visible
04 Feb 4.5 05:43:20 15° NW 05:45:03 17° NNW 05:48:53 10° NNE visible
05 Feb 5.7 02:20:59 11° NE 02:20:59 11° NE 02:21:11 10° NE visible
05 Feb 4.5 04:04:08 24° N 04:04:08 24° N 04:07:01 10° NNE visible
05 Feb 4.7 05:47:16 13° NW 05:49:29 16° NNW 05:53:01 10° NNE visible
